WIF81D ENSG-ENBR

Flight info

Callsign WIF81D
Flight time 0h 33m
Altitude 16000
Route LUNUR
Aircraft DH8A/M-V/N

Departure

Time 2026-04-24 09:57
Airport Sogndal Airport, Haukåsen (ENSG)

Arrival

Time 2026-04-24 10:31
Airport Bergen Airport, Flesland (ENBR)
Time Latitude Longitude Altitude Speed Heading
2026-04-24 09:47 61.15725 7.13643 1642 ft 0 kts 108°
2026-04-24 09:55 61.15714 7.13653 1642 ft 6 kts 185°
2026-04-24 09:55 61.15648 7.13659 1642 ft 14 kts 153°
2026-04-24 09:55 61.15631 7.13820 1642 ft 15 kts 56°
2026-04-24 09:56 61.15703 7.14057 1642 ft 23 kts 58°
2026-04-24 09:56 61.15787 7.14350 1642 ft 22 kts 59°
2026-04-24 09:56 61.15837 7.14487 1642 ft 7 kts 109°
2026-04-24 09:56 61.15820 7.14474 1642 ft 3 kts 250°
2026-04-24 09:57 61.15673 7.13946 1642 ft 88 kts 239°
2026-04-24 09:57 61.15220 7.12374 1797 ft 153 kts 243°
2026-04-24 09:57 61.14612 7.10404 2691 ft 172 kts 234°
2026-04-24 09:57 61.13813 7.08207 3422 ft 208 kts 234°
2026-04-24 09:58 61.13004 7.05556 4431 ft 227 kts 247°
2026-04-24 09:58 61.12465 7.02493 5620 ft 234 kts 265°
2026-04-24 09:58 61.12331 6.99061 6417 ft 242 kts 274°
2026-04-24 09:58 61.12235 6.95562 7210 ft 249 kts 262°
2026-04-24 09:59 61.11494 6.92279 8117 ft 253 kts 243°
2026-04-24 09:59 61.10436 6.89309 8957 ft 261 kts 237°
2026-04-24 09:59 61.09255 6.86332 9538 ft 277 kts 236°
2026-04-24 09:59 61.08011 6.83201 10281 ft 283 kts 236°
2026-04-24 10:00 61.06779 6.79997 11157 ft 287 kts 237°
2026-04-24 10:00 61.05548 6.76665 11876 ft 298 kts 238°
2026-04-24 10:00 61.04290 6.73116 12340 ft 317 kts 239°
2026-04-24 10:00 61.02980 6.69256 12708 ft 335 kts 239°
2026-04-24 10:01 61.01676 6.65322 13449 ft 337 kts 240°
2026-04-24 10:01 61.00345 6.61270 14294 ft 337 kts 240°
2026-04-24 10:01 60.99060 6.57314 14943 ft 334 kts 240°
2026-04-24 10:01 60.97783 6.53337 15593 ft 331 kts 240°
2026-04-24 10:02 60.96502 6.49370 15956 ft 336 kts 240°
2026-04-24 10:02 60.95208 6.45366 15999 ft 336 kts 240°
2026-04-24 10:02 60.93916 6.41375 16000 ft 333 kts 240°
2026-04-24 10:02 60.92648 6.37464 16000 ft 331 kts 240°
2026-04-24 10:03 60.91361 6.33545 16000 ft 330 kts 240°
2026-04-24 10:03 60.89992 6.29737 15999 ft 333 kts 234°
2026-04-24 10:03 60.88354 6.26357 16001 ft 336 kts 228°
2026-04-24 10:03 60.86568 6.23230 15988 ft 338 kts 225°
2026-04-24 10:04 60.84725 6.20210 15838 ft 340 kts 224°
2026-04-24 10:04 60.82864 6.17189 15623 ft 339 kts 224°
2026-04-24 10:04 60.81034 6.14163 15374 ft 337 kts 225°
2026-04-24 10:04 60.79235 6.11106 14999 ft 333 kts 226°
2026-04-24 10:05 60.77497 6.08086 14550 ft 322 kts 226°
2026-04-24 10:05 60.75839 6.05139 14098 ft 311 kts 227°
2026-04-24 10:05 60.74236 6.02253 13645 ft 302 kts 227°
2026-04-24 10:05 60.72676 5.99438 13193 ft 296 kts 227°
2026-04-24 10:06 60.71162 5.96710 12746 ft 292 kts 228°
2026-04-24 10:06 60.68150 5.91180 11838 ft 287 kts 229°
2026-04-24 10:06 60.66675 5.88451 11397 ft 286 kts 229°
2026-04-24 10:07 60.65207 5.85734 11021 ft 284 kts 229°
2026-04-24 10:07 60.63769 5.83075 10650 ft 282 kts 229°
2026-04-24 10:07 60.62318 5.80399 10274 ft 281 kts 228°
2026-04-24 10:07 60.60860 5.77746 9898 ft 281 kts 228°
2026-04-24 10:08 60.59412 5.75091 9523 ft 280 kts 229°
2026-04-24 10:08 60.57971 5.72441 9148 ft 279 kts 229°
2026-04-24 10:08 60.56528 5.69813 8839 ft 276 kts 228°
2026-04-24 10:08 60.55107 5.67243 8720 ft 271 kts 228°
2026-04-24 10:09 60.53712 5.64708 8679 ft 269 kts 229°
2026-04-24 10:09 60.52311 5.62159 8670 ft 271 kts 229°
2026-04-24 10:09 60.50901 5.59593 8668 ft 272 kts 229°
2026-04-24 10:09 60.49487 5.57013 8526 ft 278 kts 229°
2026-04-24 10:10 60.48528 5.55256 8242 ft 282 kts 229°
2026-04-24 10:10 60.47066 5.52599 7817 ft 282 kts 228°
2026-04-24 10:10 60.45134 5.49111 7253 ft 279 kts 228°
2026-04-24 10:10 60.43691 5.46510 6827 ft 276 kts 228°
2026-04-24 10:11 60.42260 5.43934 6401 ft 274 kts 228°
2026-04-24 10:11 60.40843 5.41376 5974 ft 271 kts 228°
2026-04-24 10:11 60.39911 5.39694 5692 ft 270 kts 229°
2026-04-24 10:11 60.38496 5.37145 5262 ft 269 kts 228°
2026-04-24 10:12 60.37120 5.34670 4841 ft 267 kts 228°
2026-04-24 10:12 60.35741 5.32171 4416 ft 264 kts 227°
2026-04-24 10:12 60.34405 5.29653 3990 ft 259 kts 228°
2026-04-24 10:12 60.33209 5.26983 3566 ft 254 kts 232°
2026-04-24 10:13 60.32150 5.24146 3140 ft 251 kts 236°
2026-04-24 10:13 60.30900 5.21781 2933 ft 243 kts 211°
2026-04-24 10:13 60.30252 5.21238 2894 ft 240 kts 200°
2026-04-24 10:13 60.28646 5.20924 2960 ft 225 kts 178°
2026-04-24 10:14 60.27149 5.21520 2983 ft 214 kts 171°
2026-04-24 10:14 60.25707 5.21529 3017 ft 204 kts 189°
2026-04-24 10:14 60.24262 5.21399 2840 ft 211 kts 182°
2026-04-24 10:14 60.22787 5.21523 2662 ft 211 kts 179°
2026-04-24 10:15 60.21335 5.21617 2536 ft 207 kts 181°
2026-04-24 10:15 60.19917 5.21643 2490 ft 200 kts 181°
2026-04-24 10:15 60.18543 5.21669 2480 ft 195 kts 181°
2026-04-24 10:15 60.17192 5.21711 2484 ft 195 kts 181°
2026-04-24 10:16 60.15830 5.21760 2487 ft 196 kts 181°
2026-04-24 10:16 60.14462 5.21809 2487 ft 198 kts 181°
2026-04-24 10:16 60.13082 5.21857 2487 ft 199 kts 181°
2026-04-24 10:16 60.11731 5.22245 2462 ft 200 kts 157°
2026-04-24 10:17 60.10697 5.24008 2482 ft 196 kts 119°
2026-04-24 10:17 60.10371 5.26564 2490 ft 187 kts 81°
2026-04-24 10:17 60.10838 5.28836 2485 ft 172 kts 43°
2026-04-24 10:17 60.11841 5.29888 2483 ft 160 kts
2026-04-24 10:18 60.12919 5.29636 2500 ft 155 kts 346°
2026-04-24 10:18 60.13961 5.29104 2486 ft 153 kts 345°
2026-04-24 10:18 60.14983 5.28553 2496 ft 149 kts 345°
2026-04-24 10:18 60.15955 5.28025 2504 ft 142 kts 344°
2026-04-24 10:19 60.16891 5.27517 2492 ft 138 kts 344°
2026-04-24 10:19 60.17395 5.27243 2482 ft 138 kts 344°
2026-04-24 10:21 60.17656 5.27102 2456 ft 138 kts 345°
2026-04-24 10:21 60.18596 5.26587 2281 ft 140 kts 345°
2026-04-24 10:21 60.19525 5.26063 2070 ft 138 kts 344°
2026-04-24 10:21 60.20419 5.25514 1869 ft 132 kts 343°
2026-04-24 10:22 60.21265 5.24910 1671 ft 126 kts 340°
2026-04-24 10:22 60.21976 5.23999 1393 ft 129 kts 314°
2026-04-24 10:22 60.22074 5.22248 1254 ft 131 kts 260°
2026-04-24 10:22 60.21388 5.21042 1345 ft 143 kts 203°
2026-04-24 10:23 60.20370 5.21060 1600 ft 149 kts 177°
2026-04-24 10:23 60.19304 5.21104 1809 ft 156 kts 178°
2026-04-24 10:23 60.18209 5.21135 1950 ft 159 kts 189°
2026-04-24 10:23 60.17297 5.20018 2091 ft 154 kts 232°
2026-04-24 10:24 60.16558 5.18411 2289 ft 161 kts 225°
2026-04-24 10:24 60.15567 5.17254 2431 ft 169 kts 207°
2026-04-24 10:24 60.14415 5.16621 2489 ft 174 kts 195°
2026-04-24 10:24 60.13210 5.16225 2491 ft 176 kts 191°
2026-04-24 10:25 60.12006 5.16354 2439 ft 178 kts 161°
2026-04-24 10:25 60.11090 5.17938 2481 ft 176 kts 118°
2026-04-24 10:25 60.10887 5.20254 2493 ft 167 kts 76°
2026-04-24 10:25 60.11453 5.22131 2492 ft 156 kts 34°
2026-04-24 10:26 60.12437 5.22846 2525 ft 150 kts
2026-04-24 10:26 60.13457 5.23232 2489 ft 148 kts
2026-04-24 10:26 60.14447 5.23673 2476 ft 144 kts 12°
2026-04-24 10:26 60.15393 5.24305 2478 ft 143 kts 17°
2026-04-24 10:27 60.16293 5.25173 2485 ft 143 kts 21°
2026-04-24 10:27 60.17244 5.25602 2468 ft 140 kts
2026-04-24 10:27 60.18205 5.25487 2325 ft 139 kts 352°
2026-04-24 10:27 60.19166 5.25156 2146 ft 141 kts 349°
2026-04-24 10:28 60.20112 5.24791 1988 ft 138 kts 349°
2026-04-24 10:28 60.21026 5.24455 1800 ft 127 kts 350°
2026-04-24 10:28 60.21854 5.24180 1564 ft 115 kts 350°
2026-04-24 10:28 60.22625 5.23977 1316 ft 108 kts 354°
2026-04-24 10:29 60.23345 5.23865 1134 ft 101 kts 353°
2026-04-24 10:29 60.24032 5.23666 956 ft 98 kts 348°
2026-04-24 10:29 60.24692 5.23403 817 ft 100 kts 348°
2026-04-24 10:29 60.25423 5.23129 752 ft 111 kts 349°
2026-04-24 10:30 60.26184 5.22878 629 ft 110 kts 349°
2026-04-24 10:30 60.26939 5.22630 488 ft 109 kts 349°
2026-04-24 10:30 60.27686 5.22372 319 ft 108 kts 349°
2026-04-24 10:30 60.28407 5.22129 179 ft 99 kts 349°
2026-04-24 10:31 60.28993 5.21931 173 ft 68 kts 350°
2026-04-24 10:31 60.29291 5.21828 173 ft 24 kts 350°
2026-04-24 10:31 60.29380 5.21915 173 ft 14 kts 78°
2026-04-24 10:31 60.29384 5.22103 173 ft 13 kts 127°
2026-04-24 10:32 60.29285 5.22158 173 ft 18 kts 171°
2026-04-24 10:32 60.29136 5.22205 173 ft 25 kts 172°
2026-04-24 10:32 60.28944 5.22270 173 ft 30 kts 171°
2026-04-24 10:32 60.28728 5.22344 173 ft 32 kts 171°
2026-04-24 10:33 60.28499 5.22418 173 ft 34 kts 169°
2026-04-24 10:33 60.28321 5.22482 173 ft 14 kts 166°
2026-04-24 10:33 60.28322 5.22601 173 ft 12 kts 18°
2026-04-24 10:33 60.28366 5.22660 173 ft 4 kts 94°
2026-04-24 10:34 60.28357 5.22687 173 ft 2 kts 124°
2026-04-24 10:34 60.28355 5.22695 173 ft 0 kts 123°